Weather History for Estherville, IA

Change the Weather History Date:

Friday, May 9, 2014

  Actual Average Record
Temperature  
Mean Temperature 52 °F 56 °F  
Max Temperature 64 °F 68 °F 89 °F (2004)
Min Temperature 39 °F 44 °F 29 °F (1966)
Degree Days  
Heating Degree Days 13 10  
Month to date heating degree days 108 97  
Since 1 July heating degree days 8391 7558  
Cooling Degree Days 0 1  
Month to date cooling degree days 4 3  
Year to date cooling degree days 4 5  
Growing Degree Days 5 (Base 50)    
Moisture  
Dew Point 42 °F    
Average Humidity 68    
Maximum Humidity 100    
Minimum Humidity 36    
Precipitation  
Precipitation 0.00 in 0.14 in 1.15 in (1990)
Month to date precipitation 0.59 1.09  
Sea Level Pressure  
Sea Level Pressure 29.73 in    
Wind  
Wind Speed 16 mph (WNW)    
Max Wind Speed 26 mph    
Max Gust Speed 33 mph    
Visibility 10 miles    
Events      
T = Trace of Precipitation, MM = Missing Value Source: NWS Daily Summary

Daily Weather History Graph

Daily Weather History Graph

Search for Another Location

Airport:

Trip Planner

Search our weather history database for the weather conditions in past years. The results will help you decide how hot, cold, wet, or windy it might be!

Date:

Astronomy

May. 09, 2014 Rise Set
Actual Time 6:01 AM CDT 8:30 PM CDT
Civil Twilight 5:29 AM CDT 9:02 PM CDT
Nautical Twilight 4:49 AM CDT 9:42 PM CDT
Astronomical Twilight 4:03 AM CDT 10:28 PM CDT
Moon 3:19 PM CDT (5/9) 3:13 AM CDT (5/9)
Length of Visible Light 15h 33m
Length of Day
14h 28m
Waxing Gibbous, 74% of the Moon is Illuminated
May 9
Waxing Gibbous
May 14
Full
May 21
Last Quarter
May 28
New
Jun 5
First Quarter

Hourly Weather History & Observations

Time (CDT) Temp. Windchill Dew Point Humidity Pressure Visibility Wind Dir Wind Speed Gust Speed Precip Events Conditions
12:41 AM 51.1 °F - 50.0 °F 96% 29.63 in 10.0 mi WSW 17.3 mph - N/A   Overcast
12:52 AM 50.0 °F - 48.9 °F 96% 29.62 in 10.0 mi West 24.2 mph 28.8 mph N/A   Overcast
1:25 AM 50.0 °F - 48.9 °F 96% 29.63 in 10.0 mi West 17.3 mph 25.3 mph N/A   Overcast
1:52 AM 50.0 °F - 48.0 °F 93% 29.63 in 10.0 mi West 18.4 mph - N/A   Overcast
2:52 AM 48.0 °F - 46.0 °F 93% 29.64 in 10.0 mi West 21.9 mph 27.6 mph N/A   Overcast
3:52 AM 46.9 °F - 46.0 °F 97% 29.65 in 10.0 mi West 18.4 mph 25.3 mph N/A   Overcast
4:52 AM 46.9 °F - 45.0 °F 93% 29.66 in 10.0 mi WNW 21.9 mph 28.8 mph N/A   Overcast
5:20 AM 46.9 °F - 45.0 °F 93% 29.68 in 10.0 mi WNW 21.9 mph - N/A   Overcast
5:52 AM 46.9 °F - 45.0 °F 93% 29.68 in 10.0 mi WNW 21.9 mph - N/A   Overcast
6:52 AM 46.9 °F - 43.0 °F 86% 29.70 in 10.0 mi NW 20.7 mph - N/A   Overcast
7:52 AM 46.9 °F - 43.0 °F 86% 29.72 in 10.0 mi NW 20.7 mph 25.3 mph N/A   Overcast
8:52 AM 46.9 °F - 43.0 °F 86% 29.75 in 10.0 mi West 19.6 mph - N/A   Overcast
10:52 AM 48.9 °F - 43.0 °F 80% 29.77 in 10.0 mi West 18.4 mph - N/A   Overcast
11:52 AM 51.1 °F - 43.0 °F 74% 29.78 in 10.0 mi West 18.4 mph - N/A   Overcast
12:17 PM 53.1 °F - 43.0 °F 69% 29.76 in 10.0 mi West 19.6 mph - N/A   Overcast
12:52 PM 55.9 °F - 43.0 °F 62% 29.77 in 10.0 mi WNW 19.6 mph 27.6 mph N/A   Mostly Cloudy
1:52 PM 57.0 °F - 41.0 °F 55% 29.77 in 10.0 mi WNW 23.0 mph 31.1 mph N/A   Partly Cloudy
2:52 PM 60.1 °F - 37.9 °F 44% 29.77 in 10.0 mi WNW 23.0 mph 28.8 mph N/A   Clear
3:52 PM 63.0 °F - 39.0 °F 41% 29.76 in 10.0 mi WNW 18.4 mph 26.5 mph N/A   Clear
4:52 PM 64.0 °F - 37.9 °F 38% 29.75 in 10.0 mi WNW 20.7 mph 24.2 mph N/A   Partly Cloudy
5:52 PM 63.0 °F - 36.0 °F 37% 29.76 in 10.0 mi West 13.8 mph 28.8 mph N/A   Scattered Clouds
6:52 PM 63.0 °F - 35.1 °F 35% 29.76 in 10.0 mi WNW 12.7 mph - N/A   Clear
7:52 PM 60.1 °F - 37.0 °F 42% 29.78 in 10.0 mi WNW 10.4 mph - N/A   Clear
8:52 PM 52.0 °F - 37.9 °F 59% 29.80 in 10.0 mi WNW 4.6 mph - N/A   Clear
10:52 PM 48.0 °F - 37.0 °F 66% 29.83 in 10.0 mi WNW 4.6 mph - N/A   Clear
11:52 PM 44.1 °F 42.5 °F 36.0 °F 73% 29.84 in 10.0 mi NNW 3.5 mph - N/A   Clear